When you browse on this site, cookies collect data to enhance your experience and personalize the content and advertising you see.
Visit our Privacy Policy to learn more. By continuing to use the site, you agree to this use of cookies and data.
  • Em Portugal
  • Lista de países
  • Para 7 dias
  • Temperatura da água
  • Mapas de satélite
  • Mapa do tempo
  • Widgets de tempo
  • user-avatar
    Iniciar Sessão

    Previsão horária em Corcha

    Hoje, 18 Novembro, Domingo

    Tempo Temperatura Precipitação Vento Pressão Humidade
    00:00 0°C° 1.2 mm 3 m/s 666 mmHg 86%
    01:00 0°C° 1.2 mm 3 m/s 666 mmHg 87%
    02:00 0°C° 2.2 mm 3 m/s 665 mmHg 87%
    03:00 0°C° 2.2 mm 3 m/s 665 mmHg 88%
    04:00 0°C° 2.2 mm 3 m/s 665 mmHg 89%
    05:00 0°C° 2.7 mm 3 m/s 664 mmHg 89%
    06:00 0°C° 2.7 mm 3 m/s 664 mmHg 89%
    07:00 0°C° 2.7 mm 3 m/s 664 mmHg 89%
    08:00 0°C° 2.6 mm 3 m/s 664 mmHg 90%
    09:00 0°C° 2.6 mm 3 m/s 663 mmHg 90%
    10:00 0°C° 2.6 mm 3 m/s 663 mmHg 90%
    11:00 0°C° 2.7 mm 3 m/s 663 mmHg 91%
    12:00 0°C° 2.7 mm 3 m/s 662 mmHg 91%
    13:00 0°C° 2.7 mm 3 m/s 662 mmHg 91%
    14:00 0°C° 1.7 mm 3 m/s 661 mmHg 91%
    15:00 0°C° 1.7 mm 3 m/s 661 mmHg 90%
    16:00 +2°C° 1.7 mm 2 m/s 661 mmHg 90%
    17:00 +1°C° 0.4 mm 2 m/s 661 mmHg 90%
    18:00 +1°C° 0.4 mm 2 m/s 660 mmHg 90%
    19:00 +1°C° 0.4 mm 2 m/s 660 mmHg 89%
    20:00 +2°C° 0.3 mm 1 m/s 660 mmHg 89%
    21:00 +2°C° 0.3 mm 1 m/s 660 mmHg 89%
    22:00 +2°C° 0.3 mm 1 m/s 660 mmHg 89%
    23:00 +2°C° 0 mm 1 m/s 660 mmHg 89%

    Amanhã, 19 Novembro, Segunda-feira

    Tempo Temperatura Precipitação Vento Pressão Humidade
    00:00 +2°C° 0 mm 1 m/s 660 mmHg 88%
    01:00 +2°C° 0 mm 1 m/s 660 mmHg 87%
    02:00 +2°C° 0 mm 1 m/s 660 mmHg 87%
    03:00 +1°C° 0 mm 1 m/s 660 mmHg 86%
    04:00 +1°C° 0 mm 1 m/s 660 mmHg 86%
    05:00 +1°C° 0 mm 1 m/s 661 mmHg 85%
    06:00 +2°C° 0 mm 1 m/s 661 mmHg 85%
    07:00 +2°C° 0 mm 1 m/s 661 mmHg 84%
    08:00 +3°C° 0 mm 1 m/s 662 mmHg 83%
    09:00 +4°C° 0 mm 1 m/s 663 mmHg 82%
    10:00 +6°C° 0 mm 1 m/s 663 mmHg 82%
    11:00 +6°C° 0 mm 1 m/s 663 mmHg 80%
    12:00 +6°C° 0 mm 1 m/s 663 mmHg 79%
    13:00 +7°C° 0 mm 1 m/s 664 mmHg 78%
    14:00 +6°C° 0 mm 1 m/s 664 mmHg 81%
    15:00 +6°C° 0 mm 1 m/s 663 mmHg 83%
    16:00 +5°C° 0 mm 1 m/s 663 mmHg 86%
    17:00 +4°C° 0 mm 2 m/s 663 mmHg 86%
    18:00 +4°C° 0 mm 2 m/s 664 mmHg 87%
    19:00 +3°C° 0 mm 2 m/s 664 mmHg 88%
    20:00 +3°C° 0.2 mm 2 m/s 664 mmHg 88%
    21:00 +3°C° 0.2 mm 2 m/s 664 mmHg 87%
    22:00 +3°C° 0.2 mm 2 m/s 664 mmHg 87%
    23:00 +3°C° 0.4 mm 3 m/s 664 mmHg 87%

    Depois de amanhã, 20 Novembro, Terça-feira

    Tempo Temperatura Precipitação Vento Pressão Humidade
    00:00 +3°C° 0.4 mm 3 m/s 664 mmHg 87%
    01:00 +3°C° 0.4 mm 3 m/s 664 mmHg 87%
    02:00 +3°C° 0.1 mm 3 m/s 664 mmHg 86%
    03:00 +3°C° 0.1 mm 3 m/s 663 mmHg 85%
    04:00 +3°C° 0.1 mm 3 m/s 663 mmHg 84%
    05:00 +3°C° 0.3 mm 3 m/s 663 mmHg 85%
    06:00 +3°C° 0.3 mm 3 m/s 663 mmHg 86%
    07:00 +3°C° 0.3 mm 3 m/s 663 mmHg 87%
    08:00 +4°C° 0.5 mm 4 m/s 664 mmHg 88%
    09:00 +4°C° 0.5 mm 4 m/s 664 mmHg 89%
    10:00 +5°C° 0.5 mm 4 m/s 664 mmHg 90%
    11:00 +5°C° 0.9 mm 4 m/s 664 mmHg 91%
    12:00 +5°C° 0.9 mm 4 m/s 664 mmHg 91%
    13:00 +6°C° 0.9 mm 4 m/s 663 mmHg 91%
    14:00 +7°C° 0.8 mm 3 m/s 663 mmHg 92%
    15:00 +5°C° 0.8 mm 3 m/s 663 mmHg 92%
    16:00 +5°C° 0.8 mm 3 m/s 663 mmHg 93%
    17:00 +5°C° 1.8 mm 3 m/s 663 mmHg 93%
    18:00 +5°C° 1.8 mm 3 m/s 663 mmHg 94%
    19:00 +5°C° 1.8 mm 3 m/s 662 mmHg 94%
    20:00 +5°C° 1 mm 3 m/s 662 mmHg 94%
    21:00 +4°C° 1 mm 3 m/s 662 mmHg 93%
    22:00 +4°C° 1 mm 3 m/s 662 mmHg 92%
    23:00 +4°C° 1.5 mm 3 m/s 661 mmHg 93%

    21 Novembro, Quarta-feira

    Tempo Temperatura Precipitação Vento Pressão Humidade
    00:00 +4°C° 1.5 mm 3 m/s 661 mmHg 94%
    01:00 +4°C° 1.5 mm 3 m/s 661 mmHg 94%
    02:00 +4°C° 1.7 mm 3 m/s 660 mmHg 95%
    03:00 +4°C° 1.7 mm 3 m/s 660 mmHg 95%
    04:00 +5°C° 1.7 mm 3 m/s 660 mmHg 95%
    05:00 +5°C° 0.4 mm 2 m/s 660 mmHg 96%
    06:00 +5°C° 0.4 mm 2 m/s 661 mmHg 96%
    07:00 +5°C° 0.4 mm 2 m/s 661 mmHg 96%
    08:00 +6°C° 0.2 mm 2 m/s 661 mmHg 94%
    09:00 +6°C° 0.2 mm 2 m/s 662 mmHg 92%
    10:00 +7°C° 0.2 mm 2 m/s 662 mmHg 90%
    11:00 +7°C° 0.1 mm 2 m/s 662 mmHg 88%
    12:00 +8°C° 0.1 mm 2 m/s 663 mmHg 86%
    13:00 +8°C° 0.1 mm 2 m/s 663 mmHg 84%
    14:00 +8°C° 0.2 mm 2 m/s 663 mmHg 86%
    15:00 +7°C° 0.2 mm 2 m/s 663 mmHg 88%
    16:00 +7°C° 0.2 mm 2 m/s 663 mmHg 91%
    17:00 +6°C° 0.1 mm 2 m/s 663 mmHg 92%
    18:00 +7°C° 0.1 mm 1 m/s 664 mmHg 93%
    19:00 +7°C° 0.1 mm 1 m/s 664 mmHg 94%
    20:00 +7°C° 0 mm 1 m/s 665 mmHg 94%
    21:00 +6°C° 0 mm 1 m/s 665 mmHg 95%
    22:00 +6°C° 0 mm 1 m/s 665 mmHg 95%
    23:00 +6°C° 0 mm 1 m/s 665 mmHg 94%

    22 Novembro, Quinta-feira

    Tempo Temperatura Precipitação Vento Pressão Humidade
    00:00 +6°C° 0 mm 1 m/s 665 mmHg 94%
    01:00 +6°C° 0 mm 1 m/s 665 mmHg 94%
    02:00 +5°C° 0 mm 1 m/s 665 mmHg 94%
    03:00 +5°C° 0 mm 1 m/s 665 mmHg 94%
    04:00 +5°C° 0 mm 1 m/s 665 mmHg 93%
    05:00 +5°C° 0 mm 1 m/s 665 mmHg 93%
    06:00 +5°C° 0 mm 1 m/s 666 mmHg 93%
    07:00 +5°C° 0 mm 1 m/s 666 mmHg 92%
    08:00 +7°C° 0 mm 1 m/s 666 mmHg 89%
    09:00 +8°C° 0 mm 1 m/s 667 mmHg 85%
    10:00 +9°C° 0 mm 1 m/s 667 mmHg 81%
    11:00 +10°C° 0 mm 1 m/s 667 mmHg 79%
    12:00 +10°C° 0 mm 1 m/s 667 mmHg 77%
    13:00 +10°C° 0 mm 2 m/s 667 mmHg 75%
    14:00 +10°C° 0 mm 1 m/s 667 mmHg 79%
    15:00 +9°C° 0 mm 1 m/s 667 mmHg 82%
    16:00 +9°C° 0 mm 1 m/s 667 mmHg 86%
    17:00 +8°C° 0 mm 1 m/s 667 mmHg 88%
    18:00 +7°C° 0 mm 1 m/s 667 mmHg 90%
    19:00 +6°C° 0 mm 0 m/s 668 mmHg 92%
    20:00 +6°C° 0 mm 1 m/s 668 mmHg 92%
    21:00 +6°C° 0 mm 1 m/s 668 mmHg 93%
    22:00 +6°C° 0 mm 1 m/s 668 mmHg 93%
    23:00 +6°C° 0 mm 1 m/s 668 mmHg 93%

    23 Novembro, Sexta-feira

    Tempo Temperatura Precipitação Vento Pressão Humidade
    00:00 +5°C° 0 mm 1 m/s 668 mmHg 92%
    01:00 +5°C° 0 mm 1 m/s 668 mmHg 92%
    02:00 +5°C° 0 mm 1 m/s 668 mmHg 91%
    03:00 +5°C° 0 mm 1 m/s 668 mmHg 89%
    04:00 +5°C° 0 mm 1 m/s 668 mmHg 88%
    05:00 +5°C° 0 mm 1 m/s 668 mmHg 86%
    06:00 +5°C° 0 mm 1 m/s 669 mmHg 85%
    07:00 +5°C° 0 mm 1 m/s 669 mmHg 83%
    08:00 +6°C° 0 mm 1 m/s 669 mmHg 79%
    09:00 +8°C° 0 mm 1 m/s 670 mmHg 75%
    10:00 +10°C° 0 mm 1 m/s 670 mmHg 70%
    11:00 +10°C° 0 mm 1 m/s 670 mmHg 68%
    12:00 +11°C° 0 mm 1 m/s 670 mmHg 67%
    13:00 +11°C° 0 mm 1 m/s 670 mmHg 65%
    14:00 +10°C° 0 mm 1 m/s 670 mmHg 68%
    15:00 +8°C° 0 mm 0 m/s 670 mmHg 72%
    16:00 +8°C° 0 mm 0 m/s 670 mmHg 75%
    17:00 +7°C° 0 mm 0 m/s 670 mmHg 77%
    18:00 +7°C° 0 mm 1 m/s 670 mmHg 79%
    19:00 +6°C° 0 mm 1 m/s 670 mmHg 82%
    20:00 +6°C° 0 mm 1 m/s 670 mmHg 82%
    21:00 +6°C° 0 mm 1 m/s 670 mmHg 83%
    22:00 +5°C° 0 mm 1 m/s 670 mmHg 83%
    23:00 +5°C° 0 mm 1 m/s 669 mmHg 84%
    Mostrar mais